Location: Podere Rosa
(41.9500°N, 12.5667°E)
Time: 19:16:56
(UTC+00:00)

Daily predictions for brighter satellites

Satellite Brightness Start Highest point End
(mag) Time Altitude Azimuth Time Altitude Azimuth Time Altitude Azimuth
Cosmos 2034 Rocket 4.2 17:11:45 10° SSE 17:17:53 55° E 17:24:00 10° NNE
CENTAUR R/B 3.3 17:11:19 10° NW 17:19:34 86° NE 17:28:27 10° SE
Okean 2 Rocket 3.2 17:15:21 10° S 17:19:49 85° W 17:24:17 10° N
OE (NEXTSAT) 4.5 17:18:30 10° WSW 17:21:59 76° NNW 17:25:28 10° ENE
NOSS 3-2 (C) 4.2 17:14:31 10° NW 17:22:13 89° SW 17:30:50 10° SSE
CZ-2C R/B 4.3 17:20:10 10° ENE 17:22:26 12° E 17:24:43 10° ESE
NOSS 3-4 (A) 3.4 17:17:55 10° SSW 17:23:47 83° ESE 17:30:02 10° NE
NOSS 3-4 (C) 3.4 17:18:01 10° SSW 17:23:53 82° ESE 17:30:08 10° NE
Shenzhou-11 Module 1.0 17:21:59 10° W 17:23:56 65° N 17:25:48 11° E
MOS 1 Rocket 4.3 17:21:31 10° NE 17:24:47 21° E 17:28:02 10° SE
In-Cosmos 22 4.1 17:19:29 10° N 17:24:53 86° ENE 17:30:24 10° S
CZ-4 R/B 4.4 17:23:16 10° SSE 17:27:22 75° ENE 17:31:31 10° N
Cosmos 1626 3.6 17:27:54 10° NNE 17:30:34 18° ENE 17:33:13 10° ESE
Aureole 2 Rocket 2.7 17:31:18 10° S 17:34:25 39° ESE 17:37:29 10° NE
Cosmos 1766 3.8 17:30:56 10° SSE 17:34:33 36° E 17:38:12 10° NNE
SL-8 R/B 4.3 17:30:12 10° SSW 17:34:40 39° SE 17:39:04 10° ENE
ATLAS 3B R/B 3.2 17:31:24 10° NNW 17:37:55 43° NE 17:44:34 10° ESE
Abrixas rocket 4.0 17:35:39 10° W 17:37:59 23° SW 17:40:20 10° SSE
USA 116 4.2 17:34:49 10° NNE 17:38:50 48° E 17:43:18 10° S
Cosmos 1733 3.7 17:36:54 10° SSE 17:40:25 36° E 17:43:57 10° NNE
Meteor 2-5 Rocket 4.1 17:36:13 10° N 17:41:45 45° ENE 17:47:20 10° SSE
RESURS DK-1 3.1 17:41:36 10° S 17:45:15 32° ESE 17:48:57 10° NE
ATLAS 2AS CENTAUR R/B 3.2 17:38:04 10° SW 17:46:01 84° NW 17:53:59 10° NE
CZ-2D R/B 3.6 17:43:47 10° S 17:47:38 70° WSW 17:51:31 10° NNW
Cosmos 1939 Rocket 4.0 17:46:10 10° S 17:50:11 49° W 17:54:12 10° NNW
Cosmos 2026 Rocket 4.4 17:45:31 10° N 17:51:34 43° ENE 17:57:33 10° SSE
Cosmos 1269 Rocket 4.0 17:47:29 10° NNW 17:52:49 73° ENE 17:58:06 10° SSE
Cosmos 2082 Rocket 3.2 17:50:04 10° N 17:54:46 26° NE 17:57:36 18° E
SJ-11-01 4.3 17:52:44 10° SSE 17:57:20 57° ENE 18:01:56 10° N
Cosmos 1092 Rocket 4.0 17:53:24 10° N 17:59:34 64° E 18:05:45 10° SSE
BREEZE-M DEB (TANK) 3.0 17:57:52 10° WNW 18:00:57 78° SSW 18:09:06 13° SE
COSMOS 2455 3.3 17:55:53 10° S 18:01:23 39° ESE 18:06:55 10° NE
Okean-O 3.4 17:57:25 10° S 18:01:46 56° W 18:06:08 10° NNW
COSMO-SKYMED 1 4.4 17:59:09 10° N 18:03:04 34° WNW 18:06:58 10° SW
CZ-2C R/B 3.2 17:57:56 10° SSE 18:03:25 85° ENE 18:09:12 10° NNW
H-2A R/B 2.0 18:00:19 10° SSE 18:05:19 66° ENE 18:10:29 10° N
Cosmos 2279 Rocket 4.4 18:02:57 10° SSE 18:08:35 37° E 18:14:16 10° NNE
Cosmos 1455 Rocket 3.8 18:05:15 10° SSE 18:09:01 29° E 18:12:49 10° NNE
SJ-6B 4.1 18:15:13 22° NE 18:15:13 22° NE 18:17:45 10° NNE
Meteor 2-13 Rocket 4.4 18:08:52 10° N 18:15:03 90° WSW 18:21:10 10° S
Cosmos 1805 4.3 18:15:38 10° SSW 18:19:24 47° W 18:23:13 10° N
ISS -2.1 18:17:49 10° NW 18:20:35 23° NNE 18:21:09 22° NE
Cosmos 2278 Rocket 2.2 18:16:43 10° SSW 18:22:22 89° WNW 18:28:04 10° NNE
Gbstr 26 Del rocket 4.2 18:16:56 10° SW 18:23:28 87° SE 18:30:28 13° NE
CSL-04 Rocket 4.0 18:23:38 10° S 18:29:04 68° WSW 18:34:37 10° NNW
HJ-1C 4.0 18:26:06 10° S 18:29:20 56° W 18:32:36 10° NNW
Okean 1 Rocket 4.3 18:26:15 10° SSW 18:30:32 45° WNW 18:34:52 10° N
Cosmos 1833 Rocket 2.6 18:27:17 10° NNW 18:32:58 85° ENE 18:36:36 23° SSE
Cosmos 2251 Rocket 3.8 18:29:14 10° N 18:34:24 47° ENE 18:35:38 40° ESE
Cosmos 2142 Rocket 4.4 18:28:32 10° S 18:34:44 70° E 18:40:53 10° NNE
Cosmos 1340 Rocket 3.3 18:31:39 10° SSW 18:35:34 61° W 18:39:34 10° N
Okean 1-7 Rocket 3.7 18:33:18 10° N 18:37:46 52° E 18:38:11 50° E
COSMOS 2406 3.6 18:33:40 10° NNW 18:39:17 65° WSW 18:44:23 13° S
Lacrosse 4 Rocket 1.2 18:40:44 10° NNW 18:44:51 83° ENE 18:45:15 71° SE
Lacrosse 5 rocket 2.2 18:42:39 10° NW 18:46:52 40° NE 18:46:58 40° NE
CZ-4C R/B 1.9 18:43:02 10° SW 18:47:53 89° NW 18:53:41 10° NE
CZ-4 R/B 4.4 18:50:25 10° SW 18:53:05 16° W 18:55:45 10° NW
SPOT 3 Rocket 4.4 18:57:22 35° NE 18:57:22 35° NE 19:01:07 10° N
Cosmos 2266 Rocket 4.3 18:51:03 10° N 18:56:18 41° ENE 18:56:18 41° ENE
ARGOS 3.7 18:51:35 10° S 18:56:51 58° W 19:02:11 10° NNW
Cosmos 1892 Rocket 3.9 18:55:51 10° NNW 19:00:09 63° W 19:01:33 40° SSW
APEX 4.1 18:58:58 10° SW 19:02:03 43° WNW 19:03:27 29° N
USA 186 3.5 19:04:00 31° NW 19:04:00 31° NW 19:05:57 10° NNW
CZ-2C R/B 2.7 18:57:45 10° NNE 19:03:24 87° WNW 19:09:01 10° SSW
MOS 1 4.2 19:03:08 49° SSE 19:04:46 85° ENE 19:10:31 10° NNW
Cosmos 1626 4.2 19:02:41 10° NNW 19:05:48 26° W 19:08:28 12° SW
Resurs 01 Rocket 3.6 19:10:02 18° NNE 19:10:02 18° NNE 19:11:26 10° N
Ariane Rocket 3.0 19:06:14 52° S 19:07:29 78° WSW 19:12:37 10° NNW
Cosmos 1470 3.4 19:08:01 52° W 19:08:03 52° W 19:11:51 10° N
SL-8 R/B 4.1 19:12:21 10° WSW 19:17:02 60° NNW 19:17:02 60° NNW
MetOp-A 4.1 19:16:55 67° SSW 19:17:35 79° WSW 19:22:58 10° NNW
Cosmos 2098 Rocket 3.6 19:14:12 10° N 19:19:21 67° N 19:19:21 67° N
Milstar 3 Cent rocket 4.0 19:19:40 10° WSW 19:25:12 21° SSW 19:25:28 21° SSW
ATLAS 3B R/B 3.6 19:22:08 10° NW 19:28:39 44° WSW 19:31:52 28° SSW
Cosmos 2082 Rocket 2.8 19:33:41 10° NW 19:39:04 49° WSW 19:39:28 48° WSW
COSMOS 2455 4.1 19:41:44 10° WSW 19:47:18 38° NW 19:52:54 10° NNE
Lacrosse 5 rocket 4.5 20:21:55 10° WNW 20:22:36 14° WNW 20:22:36 14° WNW
CZ-4C R/B 4.5 20:33:30 10° WNW 20:37:24 20° NNW 20:41:48 10° NNE
